Regional Weather Roundup
Issued by NWS Austin/San Antonio, TX

Home | Current Version | Previous Version | Text Only | Print | Product List | Glossary On
Versions: 1 2 3 4 5 6 7 8 9 10 11 12 13 14 15 16 17 18 19 20 21 22 23 24 25 26 27 28 29 30 31 32 33 34 35 36 37 38 39 40 41 42 43 44 45 46 47 48 49 50
905
ASUS44 KEWX 261811
RWREWX
SOUTH TEXAS REGIONAL WEATHER ROUNDUP
NATIONAL WEATHER SERVICE AUSTIN/SAN ANTONIO TX
100 PM CDT FRI MAY 26 2017

NOTE: "FAIR" INDICATED FEW OR NO CLOUDS BELOW 12,000 FEET WITH NO
SIGNIFICANT WEATHER AND/OR OBSTRUCTIONS TO VISIBILITY.

* - THESE STATIONS ARE NOT NWS OR FAA STATIONS...AND ARE NOT SUBJECT
    TO NWS AND FAA QUALITY CONTROL.

TXZ171-172-183>190-261900-
TEXAS HILL COUNTRY AND EDWARDS PLATEAU

CITY           SKY/WX    TMP DP  RH WIND       PRES   REMARKS
JUNCTION       PTSUNNY   88  69  53 VRB5      29.88F HX  92
6HR MIN TEMP:  75; 6HR MAX TEMP:  89;

*LLANO         PTSUNNY   86  73  66 S9        29.90S HX  93
BURNET         NOT AVBL
*HORSESHOE BAY NOT AVBL
*KERRVILLE     CLOUDY    76  75  95 S8        29.93S FOG
6HR MIN TEMP:  73; 6HR MAX TEMP:  76;

*FREDERICKSBRG CLOUDY    79  71  77 S13       29.92S
6HR MIN TEMP:  73; 6HR MAX TEMP:  79;

*ROCKSPRINGS   PTSUNNY   84  72  65 S5        29.96S
*BOERNE STAGE  CLOUDY    75  72  88 S8        29.92F
*CASTROVILLE   CLOUDY    84  72  66 SE7       29.90F
HONDO          CLOUDY    83  74  74 S6        29.88F
6HR MIN TEMP:  77; 6HR MAX TEMP:  83;

*UVALDE        CLOUDY    83  74  74 CALM      29.89F
6HR MIN TEMP:  74; 6HR MAX TEMP:  83;

DEL RIO        MOSUNNY   87  72  60 VRB3      29.85F HX  93
6HR MIN TEMP:  76; 6HR MAX TEMP:  87;

LAUGHLIN AFB   MOSUNNY   87  74  64 S5        29.86F HX  94
6HR MIN TEMP:  76; 6HR MAX TEMP:  87;

CARRIZO SPRGS  CLOUDY    86  72  62 S7        29.84F HX  92
*EAGLE PASS    NOT AVBL
$$

TXZ173-191>194-202-209-217>225-228-261900-
CENTRAL AND SOUTH CENTRAL TEXAS

CITY           SKY/WX    TMP DP  RH WIND       PRES   REMARKS
GEORGETOWN     CLOUDY    81  72  74 S15       29.88R
AUSTIN/BERGSTM CLOUDY    83  74  74 S13       29.88R
6HR MIN TEMP:  79; 6HR MAX TEMP:  83;

AUSTIN/MABRY   CLOUDY    80  73  79 S8        29.90R
6HR MIN TEMP:  77; 6HR MAX TEMP:  81;

*AUSTIN/EXEC   CLOUDY    81  73  78 S10       29.89R
*LAGO VISTA    CLOUDY    79  73  82 S9G18     29.91S
6HR MIN TEMP:  76; 6HR MAX TEMP:  80;

SAN MARCOS     CLOUDY    81  73  78 S12       29.90R
NEW BRAUNFELS  CLOUDY    83  73  72 SW12      29.88R
6HR MIN TEMP:  77; 6HR MAX TEMP:  83;

RANDOLPH AFB   CLOUDY    79  77  94 S9        29.88S
6HR MIN TEMP:  76; 6HR MAX TEMP:  81; 6HR PCP: TRACE;

PT SAN ANTONIO PTSUNNY   83  74  73 SE8       29.87S HX  90
6HR MIN TEMP:  75; 6HR MAX TEMP:  83;

SAN ANTONIO    CLOUDY    81  73  76 S13       29.89S
6HR MIN TEMP:  75; 6HR MAX TEMP:  82; 6HR PCP: TRACE;

STINSON FIELD  CLOUDY    86  74  67 SE12      29.86F HX  94
6HR MIN TEMP:  78; 6HR MAX TEMP:  86;

*LA GRANGE     CLOUDY    88  76  65 S14G21    29.86S HX  99
*GIDDINGS      CLOUDY    84  72  67 S12G18    29.89S HX  90
6HR MIN TEMP:  76; 6HR MAX TEMP:  84;

*GONZALES      CLOUDY    89  75  64 S12G18    29.86S HX  99
6HR MIN TEMP:  76; 6HR MAX TEMP:  89;

$$

TXZ163>164-176>182-195>201-210>213-226-227-235-261900-
SOUTHEAST TEXAS

CITY           SKY/WX    TMP DP  RH WIND       PRES   REMARKS
COLLEGE STN    CLOUDY    85  73  67 S18G24    29.88S HX  91
6HR MIN TEMP:  76; 6HR MAX TEMP:  85;

*BRYAN         CLOUDY    85  73  67 S16G24    29.89F HX  92
6HR MIN TEMP:  75; 6HR MAX TEMP:  85;

*CALDWELL      NOT AVBL
*CROCKETT      CLOUDY    84  73  70 S16G23    29.91F HX  91
*BRENHAM       CLOUDY    88  73  61 S17G26    29.89F HX  95
6HR MIN TEMP:  78; 6HR MAX TEMP:  88;

HUNTSVILLE     CLOUDY    85  72  65 S12G21    29.90F HX  91
6HR MIN TEMP:  75; 6HR MAX TEMP:  86;

CONROE         PTSUNNY   86  71  60 S15       29.91S HX  91
6HR MIN TEMP:  74; 6HR MAX TEMP:  87;

HOUSTON BUSH   PTSUNNY   89  71  55 S14G22    29.90F HX  95
6HR MIN TEMP:  76; 6HR MAX TEMP:  89;

HOUSTON HOBBY  PTSUNNY   86  73  65 S15G21    29.91S HX  93
6HR MIN TEMP:  76; 6HR MAX TEMP:  88;

*HOUSTON SW AP CLOUDY    85  74  68 S9        29.92S HX  92
6HR MIN TEMP:  73; 6HR MAX TEMP:  87;

PEARLAND       PTSUNNY   88  72  58 S13       29.93S HX  94
6HR MIN TEMP:  79; 6HR MAX TEMP:  88;

HOUSTON HOOKS  CLOUDY    87  73  62 S13G22    29.90F HX  94
6HR MIN TEMP:  76; 6HR MAX TEMP:  89;

ELLINGTON FLD  PTSUNNY   90  73  58 S15       29.93F HX  98
SUGAR LAND     CLOUDY    87  74  64 S13       29.91R HX  95
6HR MIN TEMP:  77; 6HR MAX TEMP:  89;

*HOUSTON EXEC  PTSUNNY   88  73  62 S18G24    29.91F HAZE    HX  96
*CLEVELAND MUN CLOUDY    88  74  62 S8        29.92F HX  97
6HR MIN TEMP:  70; 6HR MAX TEMP:  88;

*WHARTON       CLOUDY    82  72  70 S14       29.92R
6HR MIN TEMP:  77; 6HR MAX TEMP:  85;

*COLUMBUS      CLOUDY    85  73  67 S14G22    29.90S HX  92
6HR MIN TEMP:  76; 6HR MAX TEMP:  86;

*EAGLE LAKE    CLOUDY    87  77  72 S13G20    29.89F HX  98
6HR MIN TEMP:  77; 6HR MAX TEMP:  87;

$$

TXZ214>216-236>238-261900-
THE UPPER TEXAS COAST

CITY           SKY/WX    TMP DP  RH WIND       PRES   REMARKS
*ORANGE        PTSUNNY   84  73  71 S13G21    29.97F HX  90
6HR MIN TEMP:  75; 6HR MAX TEMP:  85;

PORT ARTHUR    PTSUNNY   85  72  65 S16G23    29.95S HX  91
6HR MIN TEMP:  73; 6HR MAX TEMP:  86;

GALVESTON      PTSUNNY   85  77  77 S13       29.95F HX  95
6HR MIN TEMP:  80; 6HR MAX TEMP:  86;

ANGLETON       CLOUDY    87  76  69 S16       29.92F HX  97
6HR MIN TEMP:  80; 6HR MAX TEMP:  88;

*BAY CITY      CLOUDY    84  75  73 S13       29.91F HX  92
PALACIOS       CLOUDY    81  75  82 SE16G22   29.90F
6HR MIN TEMP:  78; 6HR MAX TEMP:  82;

$$

TXZ229>234-239>247-261900-
TEXAS COASTAL BEND AND RIO GRANDE PLAINS

CITY           SKY/WX    TMP DP  RH WIND       PRES   REMARKS
VICTORIA       CLOUDY    84  75  74 SE20      29.89S HX  92
6HR MIN TEMP:  79; 6HR MAX TEMP:  86;

*BEEVILLE      CLOUDY    87  77  70 S13G18    29.86S HX  99
6HR MIN TEMP:  79; 6HR MAX TEMP:  89;

ROCKPORT       CLOUDY    83  75  77 SE16G22   29.87F HX  90
6HR MIN TEMP:  80; 6HR MAX TEMP:  85; 6HR PCP: TRACE;

*PORT ARANSAS  CLOUDY    83  76  80 SE9       29.88S HX  92
6HR MIN TEMP:  79; 6HR MAX TEMP:  83;

*PORT LAVACA   CLOUDY    83  77  82 S15       29.90S HX  91
6HR MIN TEMP:  78; 6HR MAX TEMP:  84;

*INGLESIDE     CLOUDY    86  77  75 SE18G24   29.88S HX  96
CORPUS CHRISTI CLOUDY    86  78  77 SE17G23   29.86S HX  98
6HR MIN TEMP:  79; 6HR MAX TEMP:  86; 6HR PCP: TRACE;

CORPUS NAS     CLOUDY    87  78  74 S18G26    29.87S HX 100
6HR MIN TEMP:  81; 6HR MAX TEMP:  87;

*ROBSTOWN      MOSUNNY   89  76  65 SE16G22   29.85F HX 101
6HR MIN TEMP:  80; 6HR MAX TEMP:  90;

ALICE          PTSUNNY   91  74  57 S17G23    29.83F HX 100
6HR MIN TEMP:  80; 6HR MAX TEMP:  91;

KINGSVILLE NAS PTSUNNY   94  78  60 SE10G24   29.83F HX 110
6HR MIN TEMP:  80; 6HR MAX TEMP:  95;

COTULLA        PTSUNNY   92  71  50 S9        29.84F HX  98
6HR MIN TEMP:  80; 6HR MAX TEMP:  92;

*FAITH RANCH   CLOUDY    86  73  66 SE5       29.86S HX  93
LAREDO         CLOUDY    88  74  63 VRB6      29.85S HX  96
6HR MIN TEMP:  79; 6HR MAX TEMP:  88;

$$

TXZ248>255-261900-
DEEP SOUTH TEXAS

CITY           SKY/WX    TMP DP  RH WIND       PRES   REMARKS
BROWNSVILLE    CLOUDY    91  77  63 S24G30    29.84R HX 104
6HR MIN TEMP:  82; 6HR MAX TEMP:  93;

PORT ISABEL    CLOUDY    89  77  67 S21G28    29.83S HX 101
6HR MIN TEMP:  81; 6HR MAX TEMP:  89;

*SOUTH PADRE   NOT AVBL
HARLINGEN      PTSUNNY   94  77  57 S22G30    29.81F HX 108
6HR MIN TEMP:  80; 6HR MAX TEMP:  94;

*HEBBRONVILLE  MOSUNNY   92  70  48 S14G25    29.84F HX  98
6HR MIN T



USA.gov is the U.S. government's official web portal to all federal, state and local government web resources and services.